Pilot information for Beaufort

[ general | frequencies | runways | weather | notam | navaids | links ]

Caution: This page displays community-maintained data: information may be missing, incorrect, or out of date. Please confirm with an official source before making travel plans.

General information for Beaufort

Airport codes: YBFT
Type: local airport(light traffic)
Scheduled airline service: no
Latitude: -37.495000 | 37 29.700000 S | S37 29 41
Longitude: 143.430000 | 143 25.800000 E | E143 25 48
Field elevation: 1,300 ft/396 m MSL

Radio communication frequencies for Beaufort

No communications frequencies known for Beaufort.

Members can add and update frequencies.

Runways at Beaufort

No runway information available for Beaufort.

Members can add and update runway information.

Aviation weather for Beaufort

Current conditions (METAR) for Beaufort

Closest report is Avalon Airport, 59.2 nm (109.6 km) SE. Retrieved 2015/01/25 10:00:

YMAV 251000Z AUTO 27009KT 9999 // BKN084 15/05 Q1012

Forecast (TAF) for Beaufort

Closest forecast is Avalon Airport, 59.2 nm (109.6 km) SE. Retrieved 2015/01/25 06:33:

TAF YMAV 250508Z 2506/2606 25017G30KT 9999 SCT050 
     FM251000 25008KT CAVOK 
     FM260100 17016KT 9999 SCT040

Notices to Airmen (NOTAM) for Beaufort

Please confirm all NOTAMs at the original source! These are for information only, and may be wrong, out of date, or incomplete.

We have no current NOTAMs for Beaufort. Please check with an official source to confirm.